User: anonymous   Login
Location: Albany
(35.0000°S, 118.0000°E)
Time: 15:51:44
(UTC-04:00)
Language:

Transit 2A - Orbit

View from above orbital plane
View from above orbital plane
View from above satellite
View from above satellite

Ground track
Ground track

The orbit data is extracted from the following two-line orbital elements,

1 00045U 60007A   16242.06731496 -.00000044  00000-0  16075-4 0  9995
2 00045  66.6936  79.2129 0262825 246.7646 110.5584 14.33503047923690
Epoch (UTC): 29 August 2016 01:36:56
Eccentricity: 0.0262825
inclination: 66.6936°
perigee height: 592 km
apogee height: 968 km
right ascension of ascending node: 79.2129°
argument of perigee: 246.7646°
revolutions per day: 14.33503047
mean anomaly at epoch: 110.5584°
orbit number at epoch: 92369

The dashed part of the orbit path shows where the satellite is in the earth's shadow,  

DLR